Regional Weather Roundup
Issued by NWS Boston, MA

Home | Current Version | Previous Version | Text Only | Print | Product List | Glossary On
Versions: 1 2 3 4 5 6 7 8 9 10 11 12 13 14 15 16 17 18 19 20 21 22 23 24 25 26 27
000
ASUS41 KBOX 272210
RWRBOX

REGIONAL WEATHER ROUNDUP
NATIONAL WEATHER SERVICE TAUNTON MA
600 PM EDT FRI MAY 27 2016

NOTE:  "FAIR" INDICATES FEW OR NO CLOUDS BELOW 12,000 FEET WITH NO
SIGNIFICANT WEATHER AND/OR OBSTRUCTIONS TO VISIBILITY.  THE FOLLOWING
OBSERVATION LOCATIONS DO NOT REPORT PRESENT WEATHER...PROVINCETOWN...
SMITHFIELD...BLOCK ISLAND...KEENE...AND OXFORD.

MAZALL-272300-
EASTERN MASSACHUSETTS

CITY           SKY/WX    TMP DP  RH WIND       PRES   REMARKS
BOSTON         MOSUNNY   61  55  81 E7        30.03F
BEVERLY        SUNNY     69  57  65 SE6       30.01F
LAWRENCE       SUNNY     74  59  59 E9        30.02F
BEDFORD        SUNNY     77  60  55 SE8       29.99F
BLUE HILL        N/A     80  63  55 S10G21    30.02F
NORWOOD        MOSUNNY   83  64  52 S13       30.00F
MARSHFIELD     SUNNY     81  64  57 SW13G20   30.01F
PLYMOUTH       SUNNY     77  64  64 S9G21     30.05S
TAUNTON        CLOUDY    80  62  54 S9G21     30.03F
NEW BEDFORD    SUNNY     73  62  68 SW10G22   30.05S
$$

MAZALL-272300-
CAPE COD AND THE ISLANDS

CITY           SKY/WX    TMP DP  RH WIND       PRES   REMARKS
FALMOUTH       SUNNY     68  61  77 SW13      30.08S
HYANNIS        SUNNY     69  60  73 SW14      30.06S
CHATHAM        SUNNY     64  59  83 SW10G16   30.09S
PROVINCETOWN   SUNNY     70  62  76 S18       30.04F
NANTUCKET      SUNNY     63  57  81 SW9       30.10F
MARTHAS VNYRD  MOSUNNY   67  58  72 SW14G21   30.08F
$$

MAZALL-272300-
CENTRAL AND WESTERN MASSACHUSETTS

CITY           SKY/WX    TMP DP  RH WIND       PRES   REMARKS
WORCESTER      PTSUNNY   81  61  50 SW13G23   30.05S
FITCHBURG      MOSUNNY   86  64  47 S9        30.00F
ORANGE         PTSUNNY   83  64  52 S8        30.01R
SPRINGFIELD    PTSUNNY   83  64  52 SW13      30.00R
WESTFIELD      LGT RAIN  73  68  84 SW10      30.02R
NORTH ADAMS    MOSUNNY   84  63  49 W7        29.99S
PITTSFIELD     PTSUNNY   82  64  54 SW10      30.02S
$$

RIZALL-272300-
RHODE ISLAND

CITY           SKY/WX    TMP DP  RH WIND       PRES   REMARKS
PROVIDENCE     PTSUNNY   81  62  52 S15       30.04F
NEWPORT        SUNNY     67  59  75 S9        30.07S
BLOCK ISLAND   SUNNY     64  58  80 SW17G24   30.08S
SMITHFIELD     CLOUDY   N/A N/A N/A SW9       30.03S
WESTERLY       SUNNY     68  57  68 SW12      30.08S
$$

CTZALL-272300-
CONNECTICUT

CITY           SKY/WX    TMP DP  RH WIND       PRES   REMARKS
BRADLEY INTL   PTSUNNY   84  63  49 SW16      30.00R
HARTFORD       SUNNY     85  65  51 VRB6      30.03R
BRIDGEPORT     MOSUNNY   77  63  61 S9        30.04S
DANBURY        TSTM      73  66  78 VRB3      30.05R VSB 1
GROTON         SUNNY     68  62  81 SW5       30.06F
NEW HAVEN      CLOUDY    74  63  68 S7        30.05S
CHESTER        FAIR      75  64  69 S7G14     30.07R
MERIDEN        MOSUNNY   80  64  58 S8        30.04R
WILLIMANTIC    SUNNY     84  63  49 S13       30.03S
OXFORD         PTSUNNY   75  63  64 S9        30.06S
$$

MEZ002-015-021-024-NHZ003-005-008-011-012-014-VTZ005-008-272300-
NORTHERN NEW ENGLAND

CITY           SKY/WX    TMP DP  RH WIND       PRES   REMARKS
PORTLAND ME    PTSUNNY   57  53  86 E7        30.05F
BANGOR ME      PTSUNNY   61  52  72 S10       30.05F
CONCORD NH     SUNNY     82  62  50 SE9       29.99S
MANCHESTER NH  PTSUNNY   80  60  50 SE10      29.98F
NASHUA NH      MOSUNNY   83  63  50 SE8       29.99F
PORTSMOUTH NH  PTSUNNY   61  54  77 E8        30.01F
JAFFREY NH     CLOUDY    84  62  47 S10G20    30.03S
KEENE NH       MOSUNNY   84  64  51 SW13      29.99S
BURLINGTON VT  FAIR      89  63  41 S12       29.89F HX  90
MT. WASHINGTON PTSUNNY   57  54  88 SW40G47     N/A
$$

NYZ052-076-272300-
EASTERN NEW YORK

CITY           SKY/WX    TMP DP  RH WIND       PRES   REMARKS
ALBANY         PTSUNNY   85  66  53 S16G25    29.96F
NEW YORK CITY  PTSUNNY   80  68  66 S16       30.00F
$$

ANZALL-272300-
MARINE OBSERVATIONS

STATION/POSITION TIME  TEMP    WIND        PRES    VSBY  WAVE
                       AIR SEA DIR/SP/G                  HT/PER
                 (UTC) (F)     (DEG/KT/KT) (MB)    (MI)  (FT/S)
BOSTON BUOY      2150   58 59   30/  6/  8 1016.6F         1/10
BUZZARDS BAY     2100   59     220/ 12/ 13 1019.1F
NANTUCKET SOUND  2150   61 58  230/ 14/ 16 1018.4F         1/ 3
MASS BAY-STELLWA 2104   55 57                N/A    1 3/4  2/ 4
ISLE OF SHOALS   2200   53      70/  4/  5 1016.9F
S OF BLOCK IS    2125      56                N/A           3/ 4
$$

......................KEY.........................
  SKY/WX - SKY CONDITION/PRESENT WEATHER
  TMP    - TEMPERATURE IN FAHRENHEIT
  DWPT   - DEWPOINT IN FAHRENHEIT
  RH     - RELATIVE HUMIDITY IN PERCENT
  WIND   - DIRECTION AND SPEED IN MPH
  PRES   - MEAN SEA LEVEL PRESSURE IN INCHES OF HG
  WCI    - WIND CHILL INDEX
  VSB    - VISIBILITY IN MILES
  HX     - HEAT INDEX
  TC     - TEMPERATURE IN CELSIUS
  VRB    - VARIABLE WIND DIRECTION
  N/A    - NOT AVAILABLE




USA.gov is the U.S. government's official web portal to all federal, state and local government web resources and services.